Back to catalog

STARLINK-30349

AliveCommunicationsVLEO
NORAD 57713·PAYLOAD·🇺🇸 United States

Launched Aug 27, 2023 from Cape Canaveral Space Force Station

Loading…

Next Passes (next 24 hours)

TLE

FreshSource: CelesTrak SupGP

Epoch: Sep 15, 2026, 01:44 UTC

1 57713C 23129R   26258.07270833  .00048428  00000+0  17542-2 0  2587
2 57713  42.9993 128.5666 0001187 281.3789  89.7167 15.27551808    11

Track STARLINK-30349 in real time with AllMySat

Download on the App Store